TimeCDT,TemperatureF,Dew PointF,Humidity,Sea Level PressureIn,VisibilityMPH,Wind Direction,Wind SpeedMPH,Gust SpeedMPH,PrecipitationIn,Events,Conditions,WindDirDegrees,DateUTC
12:15 AM,68.4,48.0,48,30.00,10.0,East,3.5,-,N/A,,Clear,100,2013-07-07 05:15:00
12:35 AM,69.6,49.1,48,30.00,10.0,Calm,Calm,-,N/A,,Clear,0,2013-07-07 05:35:00
12:55 AM,66.4,48.0,52,30.00,10.0,Calm,Calm,-,N/A,,Clear,0,2013-07-07 05:55:00
1:15 AM,67.6,48.9,51,30.00,10.0,Calm,Calm,-,N/A,,Clear,0,2013-07-07 06:15:00
1:35 AM,66.0,49.1,54,30.01,10.0,NW,4.6,-,N/A,,Clear,310,2013-07-07 06:35:00
1:55 AM,68.4,50.7,53,30.02,10.0,NNW,5.8,-,N/A,,Clear,340,2013-07-07 06:55:00
2:15 AM,68.9,51.8,54,30.01,10.0,NE,5.8,-,N/A,,Clear,40,2013-07-07 07:15:00
2:35 AM,67.6,52.7,59,30.02,10.0,NE,5.8,-,N/A,,Clear,40,2013-07-07 07:35:00
2:55 AM,68.0,55.2,64,30.03,10.0,NNE,10.4,-,N/A,,Clear,30,2013-07-07 07:55:00
3:15 AM,66.9,56.3,69,30.03,10.0,NNE,5.8,-,N/A,,Clear,30,2013-07-07 08:15:00
3:35 AM,66.2,56.5,71,30.03,10.0,NNE,3.5,-,N/A,,Clear,20,2013-07-07 08:35:00
3:55 AM,65.7,56.5,72,30.03,10.0,NNE,4.6,-,N/A,,Clear,30,2013-07-07 08:55:00
4:15 AM,66.2,57.2,73,30.04,10.0,NNE,5.8,-,N/A,,Scattered Clouds,30,2013-07-07 09:15:00
4:35 AM,66.0,57.7,75,30.04,10.0,NNE,6.9,-,N/A,,Scattered Clouds,30,2013-07-07 09:35:00
4:55 AM,65.3,57.4,76,30.04,10.0,NNE,4.6,-,N/A,,Clear,20,2013-07-07 09:55:00
5:15 AM,65.1,57.4,76,30.05,10.0,NW,4.6,-,N/A,,Scattered Clouds,320,2013-07-07 10:15:00
5:35 AM,64.9,57.2,76,30.06,10.0,NW,9.2,-,N/A,,Scattered Clouds,320,2013-07-07 10:35:00
5:55 AM,64.4,56.8,76,30.06,10.0,North,8.1,-,N/A,,Scattered Clouds,350,2013-07-07 10:55:00
6:15 AM,63.5,56.3,77,30.04,10.0,NNE,10.4,-,N/A,,Scattered Clouds,30,2013-07-07 11:15:00
6:35 AM,63.5,55.9,76,30.03,10.0,NE,13.8,-,N/A,,Clear,40,2013-07-07 11:35:00
6:55 AM,62.8,55.4,77,30.04,10.0,NE,12.7,-,N/A,,Clear,40,2013-07-07 11:55:00
7:15 AM,63.0,55.4,76,30.05,10.0,NE,8.1,-,N/A,,Clear,50,2013-07-07 12:15:00
7:35 AM,64.2,55.4,73,30.05,10.0,NE,9.2,-,N/A,,Clear,50,2013-07-07 12:35:00
7:55 AM,64.6,55.0,71,30.05,10.0,ENE,6.9,-,N/A,,Clear,60,2013-07-07 12:55:00
8:15 AM,65.5,55.0,69,30.05,10.0,ENE,5.8,-,N/A,,Clear,70,2013-07-07 13:15:00
8:35 AM,66.2,54.9,67,30.06,10.0,Calm,Calm,-,N/A,,Clear,0,2013-07-07 13:35:00
8:55 AM,68.9,55.4,62,30.07,10.0,NNE,3.5,-,N/A,,Clear,30,2013-07-07 13:55:00
9:15 AM,71.4,55.8,58,30.08,10.0,NNW,5.8,-,N/A,,Clear,330,2013-07-07 14:15:00
9:35 AM,72.3,56.1,57,30.10,10.0,North,8.1,-,N/A,,Clear,360,2013-07-07 14:35:00
9:55 AM,73.9,56.3,54,30.10,10.0,North,8.1,-,N/A,,Clear,10,2013-07-07 14:55:00
10:15 AM,73.6,56.5,55,30.10,10.0,North,11.5,-,N/A,,Clear,10,2013-07-07 15:15:00
10:35 AM,73.6,56.5,55,30.10,10.0,NNE,10.4,-,N/A,,Clear,20,2013-07-07 15:35:00
10:55 AM,73.8,57.0,56,30.10,10.0,NNE,9.2,-,N/A,,Clear,30,2013-07-07 15:55:00
11:15 AM,75.9,56.7,51,30.10,10.0,North,10.4,-,N/A,,Clear,10,2013-07-07 16:15:00
11:35 AM,77.0,56.3,49,30.09,10.0,ENE,10.4,-,N/A,,Clear,60,2013-07-07 16:35:00
11:55 AM,77.7,56.3,48,30.10,10.0,East,5.8,-,N/A,,Clear,80,2013-07-07 16:55:00
12:15 PM,79.3,55.8,44,30.10,10.0,East,4.6,-,N/A,,Clear,80,2013-07-07 17:15:00
12:35 PM,80.1,55.6,43,30.10,10.0,East,5.8,-,N/A,,Clear,90,2013-07-07 17:35:00
12:55 PM,81.1,55.4,41,30.09,10.0,ENE,9.2,-,N/A,,Clear,70,2013-07-07 17:55:00
1:15 PM,82.4,55.6,40,30.09,10.0,East,8.1,-,N/A,,Clear,80,2013-07-07 18:15:00
1:35 PM,83.1,54.5,37,30.08,10.0,East,8.1,-,N/A,,Clear,90,2013-07-07 18:35:00
1:55 PM,84.0,54.1,36,30.08,10.0,SE,8.1,-,N/A,,Clear,140,2013-07-07 18:55:00
2:15 PM,84.9,52.3,32,30.08,10.0,Calm,Calm,-,N/A,,Clear,0,2013-07-07 19:15:00
2:35 PM,85.5,52.0,31,30.08,10.0,Calm,Calm,-,N/A,,Scattered Clouds,0,2013-07-07 19:35:00
2:55 PM,86.4,51.8,30,30.07,10.0,NNE,3.5,-,N/A,,Scattered Clouds,20,2013-07-07 19:55:00
3:15 PM,86.7,51.4,30,30.06,10.0,Calm,Calm,-,N/A,,Clear,0,2013-07-07 20:15:00
3:35 PM,87.4,51.1,29,30.06,10.0,East,4.6,-,N/A,,Clear,100,2013-07-07 20:35:00
3:55 PM,89.2,49.8,26,30.05,10.0,NNE,9.2,-,N/A,,Clear,20,2013-07-07 20:55:00
4:15 PM,88.2,49.1,26,30.04,10.0,ENE,4.6,-,N/A,,Clear,60,2013-07-07 21:15:00
4:35 PM,86.4,48.4,27,30.04,10.0,North,5.8,-,N/A,Thunderstorm,Scattered Clouds,350,2013-07-07 21:35:00
4:55 PM,82.0,55.6,40,30.04,7.0,North,8.1,-,0.01,Rain-Thunderstorm,Thunderstorms and Rain,360,2013-07-07 21:55:00
5:15 PM,79.3,63.0,57,30.04,10.0,SSW,6.9,-,0.01,Rain-Thunderstorm,Light Thunderstorms and Rain,200,2013-07-07 22:15:00
5:35 PM,74.5,61.5,64,30.05,10.0,SSW,10.4,-,0.01,Thunderstorm,Mostly Cloudy,200,2013-07-07 22:35:00
5:55 PM,70.3,59.5,69,30.03,10.0,South,9.2,-,0.01,Thunderstorm,Unknown,190,2013-07-07 22:55:00
6:15 PM,71.2,59.7,67,30.04,10.0,South,10.4,-,N/A,Thunderstorm,Scattered Clouds,170,2013-07-07 23:15:00
6:35 PM,71.6,58.3,63,30.03,10.0,SSE,5.8,-,N/A,,Clear,150,2013-07-07 23:35:00
6:55 PM,75.2,59.7,58,30.04,10.0,SSW,9.2,-,N/A,,Clear,210,2013-07-07 23:55:00
7:15 PM,78.1,59.4,52,30.04,10.0,South,8.1,-,N/A,Thunderstorm,Clear,180,2013-07-08 00:15:00
7:35 PM,79.0,56.1,45,30.03,10.0,SSE,8.1,-,N/A,Thunderstorm,Clear,160,2013-07-08 00:35:00
7:55 PM,75.6,58.1,55,30.03,10.0,SSW,6.9,-,N/A,Thunderstorm,Clear,200,2013-07-08 00:55:00
8:15 PM,76.1,57.2,52,30.03,10.0,SSW,8.1,-,N/A,,Clear,200,2013-07-08 01:15:00
8:35 PM,75.9,57.4,52,30.04,10.0,South,6.9,-,N/A,,Clear,170,2013-07-08 01:35:00
8:55 PM,74.5,59.5,60,30.04,10.0,SSE,3.5,-,N/A,,Clear,150,2013-07-08 01:55:00
9:15 PM,73.2,58.1,59,30.05,10.0,SSE,8.1,-,N/A,,Clear,150,2013-07-08 02:15:00
9:35 PM,71.1,57.0,61,30.05,10.0,SSE,5.8,-,N/A,,Clear,150,2013-07-08 02:35:00
9:55 PM,67.1,57.6,71,30.05,10.0,Calm,Calm,-,N/A,,Clear,0,2013-07-08 02:55:00
10:15 PM,66.7,58.1,74,30.05,10.0,South,6.9,-,N/A,,Clear,180,2013-07-08 03:15:00
10:35 PM,64.9,57.0,75,30.06,10.0,South,9.2,-,N/A,,Clear,190,2013-07-08 03:35:00
10:55 PM,65.5,55.9,71,30.06,10.0,SSW,8.1,-,N/A,,Clear,200,2013-07-08 03:55:00
11:15 PM,64.9,56.3,74,30.07,10.0,South,4.6,-,N/A,,Clear,180,2013-07-08 04:15:00
11:35 PM,65.5,56.3,72,30.08,10.0,South,8.1,-,N/A,,Clear,170,2013-07-08 04:35:00
11:55 PM,64.8,56.3,74,30.08,10.0,South,5.8,-,N/A,,Clear,180,2013-07-08 04:55:00